Location: Ku?niki
(51.4449°N, 17.8974°E)
Time: 20:55:27
(UTC+00:00)

POLYITAN 1 - Pass Details

Date: 06 July 2022
Orbit: 586 x 605 km, 98.0° (Epoch: 13 August)

Event Time Altitude Azimuth Distance (km) Brightness Sun altitude
Rises 00:29:01 0° 17° (NNE) 2,866 ? -12.9°
Reaches altitude 10° 00:31:14 10° 21° (NNE) 1,960 ? -12.8°
Maximum altitude 00:35:26 58° 101° (E) 713 ? -12.5°
Enters shadow 00:38:48 15° 178° (S) 1,628 ? -12.3°
